Location: ??????
(30.5519°N, 47.7720°E)
Time: 18:05:14
(UTC+00:00)

YAOGAN 1 - Pass Details

Date: 24 January 2021
Orbit: 618 x 620 km, 97.9° (Epoch: 01 March)

Event Time Altitude Azimuth Distance (km) Brightness Sun altitude
Rises 16:19:03 0° 190° (S) 2,880 6.2 -25.9°
Reaches altitude 10° 16:21:28 10° 202° (SSW) 1,978 5.5 -26.4°
Maximum altitude 16:25:12 29° 262° (W) 1,141 4.5 -27.2°
Drops below altitude 10° 16:28:59 10° 323° (NW) 1,989 5.5 -28.1°
Sets 16:31:25 0° 335° (NNW) 2,898 6.2 -28.6°
